Pagina principale
METAR-TAF:

METAR-TAF

Aeroporti :

Bredasdorp, Sudafrica

latitudine: 34-33-17S, longitudine: 20-15-02E, altezza: 16 m

Osservazione

Il bollettino è stato emesso 56 minuti fa, alle 02:00 UTC
Vento 5 kt da est
Temperature 12°C
Umidità 82%
Pressione 1022 hPa

METAR: FAOB 240200Z AUTO 09005KT //// // ////// 12/09 Q1022

Ora: 04:56 (02:56 UTC)


TAF: mancante

Osservazioni e previsioni meteorologiche di più di 4000 aeroporti (messaggi METAR e TAF).

Le stazioni disponibili sono rappresentate dai dischi gialli e rossi sulla carta.

Puntare il mouse per vedere il nome della stazione.

Clicca sopra per visualizzare le osservazioni e previsioni meteorologiche.

Per cambiare la mappa : fare clic sui pulsanti verdi con una croce nera per ingrandire, il pulsante verde con un trattino per diminuire, o sulla freccia verde per le mappe adiacenti.


METAR-TAF: